Torna al catalogo

QIANFAN-177

AttivoComunicazioniPO
NORAD 69394·PAYLOAD·🇨🇳 China

Lanciato Jun 4, 2026 da Taiyuan Satellite Launch Center

Loading…

Prossimi Passaggi (prossime 24 ore)

TLE

AggiornatoSource: Space-Track

Epoca: Sep 14, 2026, 21:16 UTC

1 69394U 26124N   26257.88624888  .00000135  00000-0  18981-3 0  9999
2 69394  89.0068 352.5248 0002078 109.7669 250.3707 13.51029412 14184

Traccia QIANFAN-177 in tempo reale con AllMySat

Download on the App Store